Regional Weather Roundup
Issued by NWS

Home | Current Version | Previous Version | Text Only | Print | Product List | Glossary On
Versions: 1 2 3 4 5 6 7 8 9 10 11 12 13 14 15 16 17 18 19 20 21 22 23 24 25 26 27 28 29 30 31 32 33 34 35 36 37 38 39 40 41 42 43 44 45 46 47 48 49 50
000
ASUS43 KMKX 290800
RWRWI

WISCONSIN REGIONAL WEATHER ROUNDUP
NATIONAL WEATHER SERVICE MILWAUKEE/SULLIVAN WI
300 AM CDT FRI AUG 29 2014

NOTE: "FAIR" INDICATES FEW OR NO CLOUDS BELOW 12,000 FEET WITH NO
SIGNIFICANT WEATHER AND/OR OBSTRUCTIONS TO VISIBILITY.

WIZ001-002-006>008-014>016-023>028-290900-
NORTHWEST WISCONSIN

CITY           SKY/WX    TMP DP  RH WIND       PRES   REMARKS
SUPERIOR ARPT  CLOUDY    62  60  93 NE5       29.90F
ASHLAND        CLOUDY    62  59  90 SE3       29.92F
HAYWARD        CLOUDY    63  60  90 S9        29.92F
SIREN          CLOUDY    65  62  89 SE8       29.88F
RICE LAKE      CLOUDY    63  58  83 SE13G22   29.91F
LADYSMITH      CLOUDY    61  58  90 SE6       29.96F
EAU CLAIRE     NOT AVBL
MENOMONIE      CLOUDY    61  59  93 E9        29.90F
NEW RICHMOND   LGT RAIN  64  63  97 SE8       29.87F
OSCEOLA        CLOUDY    65  65 100 SE12      29.88F
$$

WIZ003>005-009-010-017-018-290900-
NORTH CENTRAL WISCONSIN

CITY           SKY/WX    TMP DP  RH WIND       PRES   REMARKS
WOODRUFF       CLOUDY    62  56  82 S12       29.99F
RHINELANDER    CLOUDY    57  56  96 SE6       30.00F
EAGLE RIVER    LGT RAIN  59  55  84 S7        30.01F
LAND O LAKES   CLOUDY    61  55  80 S6        30.01F
PHILLIPS       CLOUDY    60  56  89 SE10G16   29.96F
TOMAHAWK       CLOUDY    57  56  94 SE3       30.00F
MEDFORD        DRIZZLE   55  55  97 SE7       29.97F
MERRILL        CLOUDY    57  57  99 SE8       30.00F
$$

WIZ029-030-035-036-043>047-290900-
CENTRAL WISCONSIN

CITY           SKY/WX    TMP DP  RH WIND       PRES   REMARKS
WAUSAU         RAIN      57  56  96 E9        29.96F FOG
MOSINEE        DRIZZLE   55  55 100 E6        30.00F
MARSHFIELD     CLOUDY    57  56  96 E8        29.96F
STEVENS POINT  RAIN      56  56  97 E8        29.99F
WAUPACA        RAIN      61  60  95 E6        29.99F
WAUTOMA        NOT AVBL
WISC RAPIDS    CLOUDY    59  58  96 E5        29.97F
CAMP DOUGLAS   NOT AVBL
$$

WIZ011>013-019>022-031-037>040-048>050-290900-
NORTHEAST WISCONSIN

CITY           SKY/WX    TMP DP  RH WIND       PRES   REMARKS
ANTIGO         DRIZZLE   56  56  99 SE9       30.02F
STURGEON BAY   CLOUDY    63  57  82 SE6       30.03F
GREEN BAY      HVY RAIN  61  59  93 E7        30.01F FOG
MANITOWOC      NOT AVBL
APPLETON       RAIN      61  59  94 E6        30.00F
CLINTONVILLE   RAIN      59  57  94 NE5       30.01F
OSHKOSH        CLOUDY    64  61  90 E5        29.96F
$$

WIZ032>034-041-042-053>061-290900-
SOUTHWEST WISCONSIN

CITY           SKY/WX    TMP DP  RH WIND       PRES   REMARKS
LA CROSSE      CLOUDY    66  61  84 E7        29.91S
SPARTA         CLOUDY    61  59  92 CALM      29.93F
VIROQUA        CLOUDY    63  63 100 SE6       29.93F
BOSCOBEL       CLOUDY    68  63  84 VRB5      29.92F
PRAIRIE DU CHI CLOUDY    67  64  87 E6        29.91F
PLATTEVILLE    FAIR      64  63  96 CALM      29.95F
$$

WIZ056-057-062-063-064-067-068-290900-
SOUTH CENTRAL WISCONSIN

CITY           SKY/WX    TMP DP  RH WIND       PRES   REMARKS
BARABOO/DELLS  MOCLDY    65  60  85 S7        29.94F
LONE ROCK      NOT AVBL
WATERTOWN      CLOUDY    65  63  93 SE5       29.96F
MADISON        PTCLDY    65  61  87 SE7       29.95F
MIDDLETON      FAIR      64  63  94 E3        29.95F
MONROE         PTCLDY    64  63  94 S8        29.96F FOG
JANESVILLE     PTCLDY    66  63  88 SE5       29.95F FOG
$$

WIZ051-052-058>065-066-070>072-290900-
SOUTHEAST WISCONSIN

CITY           SKY/WX    TMP DP  RH WIND       PRES   REMARKS
MILWAUKEE      PTCLDY    69  65  86 SE8       29.97F
WAUKESHA       MOCLDY    63  59  88 SE6       29.99F
MILWAUKEE/TIMM MOCLDY    68  61  77 SE6       29.99F
RACINE         PTCLDY    70  66  87 SE9       29.99F
BURLINGTON     PTCLDY    60  60  99 CALM      29.97F
KENOSHA        MOCLDY    70  68  93 SE6       29.98F
FOND DU LAC    MOCLDY    64  59  83 SE9       29.96F
SHEBOYGAN      CLOUDY    65  59  81 SE6       29.98F
WEST BEND      MOCLDY    64  57  77 SE5       29.98F
JUNEAU         MOCLDY    64  60  86 SE7       29.97F
$$

LSZ147-162-290900-
LAKE SUPERIOR

STATION/POSITION TIME  TEMP    WIND        PRES    WAVE
                       AIR SEA DIR/SP/G            HT/PER
                 (UTC) (F)     (DEG/KT/KT) (MB)    (FT/S)
W MID LAKE BUOY  0650   60 57  170/  8/  8 1014.0F   0
DEVILS ISLAND    0700   62      70/  2/  3 1013.7F
PORT WING        0700   63      90/  2/  3 1013.2F
SAXON HARBOR     0700   65      CALM  /  3 1013.9F
$$

LMZ867-665-643>646-290900-
LAKE MICHIGAN

STATION/POSITION TIME  TEMP    WIND        PRES    WAVE
                       AIR SEA DIR/SP/G            HT/PER
                 (UTC) (F)     (DEG/KT/KT) (MB)    (FT/S)
N MID LAKE BUOY  0650   65 65  110/ 14/ 16 1017.5F   1/ 3
NORTHPORT PIER   0700   65     130/ 11/ 14 1017.3F
SISTER BAY       0641   64     150/  7/  9   N/A
ALGOMA LAKESHORE 0708          170/ 13/ 14   N/A
KEWAUNEE LAKESHO 0700   65     130/  7/  9 1016.0F
SHEBOYGAN LAKESH 0700   67 69  140/ 12/ 15 1016.2F
ATWATER BUOY     0700   70     140/ 14/ 17 1016.6F
MILWAUKEE LAKESH 0700   69     140/ 11/ 13   N/A
S MID LAKE BUOY  0650   69 69  130/ 14/ 16 1016.0F   2/ 4
KENOSHA   LAKESH 0700   71     150/ 10/ 12 1015.2F
$$

TC  - TEMPERATURE IN CELSIUS
VSB - VISIBILITY IN STATUTE MILES
WCI - WIND CHILL INDEX
HX  - HEAT INDEX



USA.gov is the U.S. government's official web portal to all federal, state and local government web resources and services.